HAWK-5C

Last updated on Tue Sep 22 2026 00:03:52 GMT+0000 (Coordinated Universal Time)

1 52754U 22057Y 26264.18253727 .00014185 00000+0 21718-3 0 9994 2 52754 97.6684 70.3350 0004590 83.0172 277.1603 15.54470275241241
UTC large
Height (km)
Speed (km/s)
/
Latitude / Longitude
Inclination (degrees)
Orbital Period (minutes)
Azimuth
Elevation
Range (km)
Doppler Factor

Next 0 passes for location: London (51.5072 / 0.1276)

No passes found over London.
HAWK-5C